Probability
0 0 0 0 0 0 0 0 0 0 0 0 0 0 0 0 0 0 0 0 0 0 0 0 0 0 0 0 0 0 0 0 0 0 0 0 0 0 0 0 0 0 0 0
0 0 0 0 0 0 0 0 0 0 0 0 0 0 0 0 0 0 0 0 0 0 0 0 0 0 0 0 0 0 0 0 0 0 0 0 0 0 0 0 0 0 0 0
0 0 0 0 0 0 0 0 0 0 0 0 0 0 0 0 0 0 0 0 0 0 0 0 0 0 0 0 0 0 0 0 0 0 0 0 0 0 0 0 0 0 0 0
0 0 0 0 0 0 0 0 0 0 0 0 0 0 0 0 0 0 0 0 0 0 0 0 0 0 0 0 0 0 0 0 0 0 0 0 0 0 0 0 0 0 0 0
0 0 0 0 0 0 0 0 0 0 0 0 0 0 0 0 0 0 0 0 0 0 0 0 0 0 0 0 0 0 0 0 0 0 0 0 0 0 0 0 0 0 0 0
0 0 0 0 0 0 0 0 0 0 0 0 0 0 0 0 0 0 0 0 0 0 0 0 0 0 0 0 0 0 0 0 0 0 0 0 0 0 0 0 0 0 0 0
0 0 0 0 0 0 0 0 0 0 0 0 0 0 0 0 0 0 0 0 0 0 0 0 0 0 0 0 0 0 0 0 0 0 0 0 0 0 0 0 0 0 0 0
0 0 0 0 0 0 0 0 0 0 0 0 0 0 0 0 0 0 0 0 0 0 0 0 0 0 0 0 0 0 0 0 0 0 0 0 0 0 0 0 0 0 0 0
0 0 0 0 0 0 0 0 0 0 0 0 0 0 0 0 0 0 0 0 0 0 0 0 0 0 0 0 0 0 0 0 0 0 0 0 0 0 0 0 0 0 0 0
0 0 0 0 0 0 0 0 0 0 0 0 0 0 0 0 0 0 0 0 0 0 0 0 0 0 0 0 0 0 0 0 0 0 0 0 0 0 0 0 0 0 0 0
0 0 0 0 0 0 0 0 0 0 0 0 0 0 0 0 0 0 0 0 0 0 0 0 0 0 0 0 0 0 0 0 0 0 0 0 0 0 0 0 0 0 0 0
0 0 0 0 0 0 0 0 0 0 0 0 0 0 0 0 0 0 0 0 0 0 0 0 0 0 0 0 0 0 0 0 0 0 0 0 0 0 0 0 0 0 0 0
0 0 0 0 0 0 0 0 0 0 0 0 0 0 0 0 0 0 0 0 0 0 0 0 0 0 0 0 0 0 0 0 0 0 0 0 0 0 0 0 0 0 0 0
0 0 0 0 0 0 0 0 0 0 0 0 0 0 0 0 0 0 0 0 0 0 0 0 0 0 0 0 0 0 0 0 0 0 0 0 0 0 0 0 0 0 0 0
0 0 0 0 0 0 0 0 0 0 0 0 0 0 0 0 0 0 0 0 0 0 0 0 0 0 0 0 0 0 0 0 0 0 0 0 0 0 0 0 0 0 0 0
0 0 0 0 0 0 0 0 0 0 0 0 0 0 0 0 0 0 0 0 0 0 0 0 0 0 0 0 0 0 0 0 0 0 0 0 0 0 0 0 0 0 0 0
0 0 0 0 0 0 0 0 0 0 0 0 0 0 0 0 0 0 0 0 0 0 0 0 0 0 0 0 0 0 0 0 0 0 0 0 0 0 0 0 0 0 0 0
0 0 0 0 0 0 0 0 0 0 0 0 0 0 0 0 0 0 0 0 0 0 0 0 0 0 0 0 0 0 0 0 0 0 0 0 0 0 0 0 0 0 0 0
0 0 0 0 0 0 0 0 0 0 0 0 0 0 0 0 0 0 0 0 0 0 0 0 0 0 0 0 0 0 0 0 0 0 0 0 0 0 0 0 0 0 0 0
0 0 0 0 0 0 0 0 0 0 0 0 0 0 0 0 0 0 0 0 0 0 0 0 0 0 0 0 0 0 0 0 0 0 0 0 0 0 0 0 0 0 0 0
0 0 0 0 0 0 0 0 0 0 0 0 0 0 0 0 0 0 0 0 0 0 0 0 0 0 0 0 0 0 0 0 0 0 0 0 0 0 0 0 0 0 0 0
0 0 0 0 0 0 0 0 0 0 0 0 0 0 0 0 0 0 0 0 0 0 0 0 0 0 0 0 0 0 0 0 0 0 0 0 0 0 0 0 0 0 0 0
0 0 0 0 0 0 0 0 0 0 0 0 0 0 0 0 0 0 0 0 0 0 0 0 0 0 0 0 0 0 0 0 0 0 0 0 0 0 0 0 0 0 0 0
0 0 0 0 0 0 0 0 0 0 0 0 0 0 0 0 0 0 0 0 0 0 0 0 0 0 0 0 0 0 0 0 0 0 0 0 0 0 0 0 0 0 0 0
0 0 0 0 0 0 0 0 0 0 0 0 0 0 0 0 0 0 0 0 0 0 0 0 0 0 0 0 0 0 0 0 0 0 0 0 0 0 0 0 0 0 0 0
0 0 0 0 0 0 0 0 0 0 0 0 0 0 0 0 0 0 0 0 0 0 0 0 0 0 0 0 0 0 0 0 0 0 0 0 0 0 0 0 0 0 0 0
0 0 0 0 0 0 0 0 0 0 0 0 0 0 0 0 0 0 0 0 0 0 0 0 0 0 0 0 0 0 0 0 0 0 0 0 0 0 0 0 0 0 0 0
Wind_Speed
7 3 6 10 11 11 10 7 6 8 9 11 16 15 14 13 12 12 12 12 12 12 12 12 12 12 12 11 10 8 5 4 3 2 2 2 3 3 4 4 4 3 2 1
5 2 1 7 10 9 8 7 7 6 5 9 13 11 12 12 11 11 12 12 12 12 12 12 12 11 12 12 11 10 9 8 7 7 6 6 5 5 5 6 6 5 4 4
4 4 6 4 6 5 5 6 4 4 6 12 12 11 11 11 10 10 11 11 12 11 11 11 10 11 12 11 10 11 12 11 11 10 9 9 8 8 8 9 9 8 7 6
2 6 2 6 3 1 1 1 3 5 8 10 9 5 8 10 10 10 10 10 10 10 10 9 9 9 9 9 10 11 12 11 10 9 9 9 10 10 10 9 9 8 8 8
1 2 5 4 4 3 1 2 1 4 7 10 10 4 11 14 12 10 9 8 8 8 8 8 8 8 9 10 10 10 10 9 9 9 9 9 10 10 9 8 8 8 8 9
3 3 2 6 7 2 4 3 2 3 7 9 10 7 9 14 13 10 9 8 8 7 7 7 7 6 8 8 9 9 8 8 8 9 9 8 8 8 7 6 6 6 8 9
4 3 3 6 6 5 4 5 3 3 5 7 8 7 9 10 10 9 8 8 8 7 6 6 6 6 8 9 8 7 7 8 8 8 8 7 7 7 7 7 6 6 7 7
4 4 3 9 7 5 4 4 1 2 4 6 7 7 9 9 10 10 9 8 8 7 7 6 6 7 8 8 6 5 5 6 6 6 5 5 6 7 7 6 5 5 5 5
4 2 5 7 5 1 0 1 1 3 4 5 6 8 9 9 9 9 9 8 8 8 8 6 5 6 7 6 4 4 4 5 4 4 4 5 5 6 5 5 4 4 4 4
6 6 7 8 7 6 4 3 2 3 4 4 6 7 8 8 8 8 8 8 8 8 8 8 7 5 5 4 3 3 4 4 3 4 4 4 4 4 4 4 5 5 6 5
7 4 7 10 10 9 7 4 2 2 2 4 5 7 8 8 8 8 8 8 8 8 8 9 8 6 5 4 3 3 3 3 3 3 3 3 4 3 3 4 6 6 5 5
4 7 7 8 13 12 9 6 4 2 1 2 4 7 8 8 8 8 8 8 8 8 9 9 8 7 6 4 3 4 2 1 2 2 3 3 2 4 2 1 3 5 6 7
1 4 5 3 10 12 10 7 5 4 3 4 4 6 7 8 7 8 8 9 9 9 9 9 9 7 7 6 4 4 2 0 1 2 3 3 3 2 3 4 4 0 5 7
4 5 7 7 9 11 10 8 6 5 4 4 5 6 7 7 8 9 9 9 9 9 8 9 9 8 8 7 5 3 2 2 1 2 2 3 3 3 3 3 3 3 5 8
10 9 6 7 9 10 9 8 7 6 4 3 3 5 6 7 8 9 9 9 8 8 9 9 9 9 9 7 5 2 3 3 2 2 2 3 3 3 4 5 4 3 3 4
13 9 7 9 11 11 10 10 8 6 4 3 3 4 5 6 7 7 8 8 8 8 8 9 10 10 10 7 4 1 3 3 2 2 2 2 2 2 4 4 3 3 4 5
16 16 14 13 12 12 11 10 8 6 5 4 3 4 5 6 6 7 8 8 8 7 6 8 10 10 9 6 2 2 4 5 4 3 2 1 2 2 3 3 3 4 5 5
16 15 15 14 12 12 11 10 8 6 5 3 3 4 5 6 7 7 8 9 9 7 7 8 10 10 8 5 1 2 3 4 4 2 2 1 1 2 2 3 3 3 3 3
14 13 13 12 11 11 10 10 9 7 6 5 5 5 5 5 6 7 8 8 8 8 9 10 11 8 7 5 2 2 3 4 4 3 3 3 2 1 1 2 2 1 1 1
13 12 13 12 11 10 10 9 8 7 6 6 6 5 5 5 5 6 7 7 4 5 9 10 10 7 6 5 4 2 3 4 4 4 3 3 3 2 2 2 2 1 1 1
14 13 13 12 12 11 10 10 9 8 8 7 7 6 5 4 4 5 6 6 4 6 9 9 7 5 6 7 7 4 4 4 4 4 4 4 3 3 3 3 2 2 1 1
13 13 13 13 12 12 11 10 10 9 9 8 8 7 6 6 5 5 5 5 5 6 7 6 6 7 10 12 6 4 5 5 5 4 4 4 4 4 3 3 2 2 2 2
10 11 13 13 13 12 12 11 11 10 10 10 9 8 8 6 4 4 5 3 4 7 8 6 9 12 15 9 5 5 6 6 5 5 5 4 4 4 4 3 3 3 3 3
7 9 11 11 12 12 13 12 11 9 10 9 9 8 8 6 5 5 5 5 6 8 8 7 9 11 12 6 4 4 5 5 5 4 4 4 4 4 4 4 3 4 4 4
5 7 9 10 11 10 11 12 11 10 10 8 9 9 8 6 6 5 5 6 5 7 7 7 8 10 8 5 4 4 4 4 4 4 4 4 5 5 5 4 4 4 4 4
1 3 5 7 8 7 8 8 8 8 8 8 8 7 7 6 7 6 6 7 8 7 7 6 6 6 6 5 4 4 4 4 5 5 5 5 6 5 5 5 6 5 4 4
3 1 3 4 6 7 7 8 9 9 9 9 9 8 8 7 6 7 8 7 6 6 5 5 5 5 5 5 5 4 4 4 5 5 5 5 5 5 5 7 6 6 5 5
Wind_Direction
113 110 19 33 25 28 36 24 22 20 19 355 351 358 8 12 12 17 23 25 26 28 26 25 29 36 43 44 38 39 53 69 82 107 117 106 94 73 57 56 62 57 56 90
143 178 14 50 31 25 25 18 30 43 27 336 338 358 13 15 12 19 26 29 31 32 32 29 28 35 44 48 48 55 64 73 81 90 91 86 75 61 50 42 36 34 39 68
130 151 192 75 31 19 26 20 4 8 332 325 343 6 15 15 17 27 33 37 37 36 36 33 33 34 41 43 50 55 58 58 59 61 60 58 60 57 50 46 43 41 43 61
174 194 134 89 116 273 260 21 345 322 324 335 348 20 48 30 19 21 22 28 31 31 36 37 40 41 41 41 46 50 51 51 51 54 56 56 54 51 47 48 51 53 54 63
235 130 124 157 186 217 223 110 16 337 349 356 344 92 57 24 8 6 5 11 20 22 28 38 39 37 49 51 49 49 48 47 48 52 52 49 47 45 42 45 52 57 56 54
247 243 150 128 133 158 247 154 117 355 4 3 2 33 26 0 353 357 357 3 6 10 24 37 38 36 51 57 56 51 47 48 47 47 50 50 48 45 47 49 50 59 60 49
242 259 110 119 137 187 229 95 101 13 2 358 6 356 338 341 356 2 359 353 350 356 19 20 12 25 46 49 50 46 40 40 40 40 42 37 35 33 28 31 34 40 59 53
221 230 151 145 170 209 47 84 91 9 356 347 344 343 347 353 1 5 5 359 350 346 359 7 2 4 36 43 47 53 52 47 44 39 32 27 29 31 29 25 34 39 53 62
248 16 94 178 205 208 224 221 44 358 348 337 341 351 352 354 359 0 1 359 351 340 334 341 358 351 2 24 23 37 47 52 42 44 43 29 27 37 40 38 40 45 49 46
247 230 205 202 214 212 208 237 321 328 325 324 339 348 352 354 356 356 355 353 346 338 330 332 341 337 337 351 349 3 28 32 33 27 43 58 49 46 48 48 45 41 33 20
239 208 193 208 211 204 193 208 242 279 295 320 334 346 350 351 355 352 348 345 341 336 329 324 328 335 347 345 325 335 2 12 13 22 23 52 74 56 54 61 32 14 12 1
218 192 193 192 192 190 190 198 205 221 277 329 337 345 348 351 351 346 344 341 341 344 341 339 339 344 356 343 309 296 307 350 6 25 32 32 76 127 122 60 21 5 359 349
37 174 187 139 171 179 190 198 204 225 270 316 336 344 345 346 346 345 346 349 348 348 349 351 351 359 4 345 313 281 271 161 69 32 39 37 34 53 116 156 188 249 33 33
194 176 185 181 173 179 187 194 202 219 246 290 322 335 342 344 347 350 353 351 344 342 351 357 356 0 355 342 319 272 212 135 129 80 50 47 46 48 54 67 98 103 85 57
200 207 201 173 171 176 184 190 200 215 230 264 300 321 337 344 346 346 348 348 342 344 351 351 350 353 348 336 317 266 189 160 143 100 83 70 61 61 74 77 72 56 61 75
191 201 204 188 182 182 187 197 209 218 225 250 290 318 331 334 333 335 344 349 343 344 344 341 343 344 341 331 313 215 158 108 132 144 140 112 91 74 81 86 87 73 52 36
181 193 198 200 195 192 195 203 213 220 223 240 285 313 316 322 328 335 340 341 334 329 332 340 341 337 339 337 288 171 155 147 172 193 158 110 86 72 86 103 101 85 69 45
200 199 198 201 198 195 197 201 208 213 222 234 274 286 298 316 326 328 330 330 330 335 352 350 347 333 346 3 357 166 160 158 177 173 160 156 103 96 98 118 125 106 101 110
207 205 201 203 202 198 195 197 202 207 210 215 243 265 291 305 316 319 323 323 329 341 348 347 332 325 355 19 345 197 180 167 170 169 175 157 210 165 161 174 162 132 92 73
205 206 203 199 197 201 201 199 201 202 204 211 230 248 267 291 309 314 317 310 318 340 334 334 326 336 343 3 325 236 198 188 181 177 185 194 206 202 207 203 197 198 230 308
202 200 199 199 197 201 206 204 201 202 199 204 224 241 259 277 291 302 308 303 321 344 328 315 317 335 341 335 297 251 218 203 197 195 197 211 222 214 213 211 202 213 217 209
203 199 198 199 198 200 202 202 201 201 199 205 219 231 242 256 271 286 285 276 300 323 315 317 332 342 330 310 278 244 222 211 210 207 208 221 231 230 220 209 199 192 190 187
207 203 201 201 202 202 197 198 201 200 201 207 216 223 231 245 263 277 291 299 309 325 310 317 334 325 316 296 269 234 218 212 210 212 214 220 228 234 228 207 193 194 193 192
212 206 206 205 205 204 200 199 201 203 207 212 219 226 230 234 239 242 257 274 286 300 297 313 319 321 310 291 275 237 217 211 209 214 216 215 218 222 221 213 200 199 201 196
225 215 210 207 208 209 209 202 198 202 208 215 221 221 225 233 246 257 260 273 286 291 296 307 312 313 307 308 285 247 227 219 221 218 212 217 218 217 214 208 201 201 205 197
293 236 226 218 217 212 207 202 201 202 206 213 220 220 220 222 233 242 252 261 268 277 286 297 312 312 319 314 292 259 241 218 211 223 228 226 222 215 211 205 194 196 202 201
5 294 246 241 233 225 218 209 210 210 209 214 221 220 220 220 221 227 238 250 259 265 276 287 300 312 318 315 302 281 257 243 234 226 223 223 223 216 210 203 193 190 192 192